KG5VSR Weather Reports


time (UTC)temp
C
wind
direction
speed
KPH
gust
KPH
rain 1hr
cm
rain 24hr
cm
rain mn
cm
humidity
%
barometer
mb
20260903204341 32 187 1.6 3.2 0.00 0.00 0.00 67 1012.2
20260903201340 32 191 1.6 3.2 0.00 0.00 0.00 67 1012.5
20260903194339 31 231 1.6 3.2 0.00 0.00 0.00 70 1013.0
20260903191338 30 188 6.4 8.0 0.00 0.00 0.00 73 1013.2
20260903184336 30 168 4.8 8.0 0.00 0.00 0.00 74 1013.7
20260903181331 29 186 4.8 8.0 0.00 0.00 0.00 76 1013.9
20260903174326 28 186 6.4 9.7 0.00 0.00 0.00 79 1014.4
20260903171326 28 201 4.8 8.0 0.00 0.00 0.00 82 1014.4
20260903164326 28 205 3.2 3.2 0.00 0.00 0.00 82 1014.6
20260903161323 28 248 1.6 1.6 0.00 0.00 0.00 85 1014.2
20260903154320 27 148 3.2 4.8 0.00 0.00 0.00 88 1014.2
20260903151317 27 178 4.8 4.8 0.00 0.00 0.00 89 1014.0
20260903144314 27 213 3.2 3.2 0.00 0.00 0.00 89 1014.4
20260903141312 26 279 0.0 0.0 0.00 0.00 0.00 90 1014.2
20260903134310 26 66 1.6 1.6 0.00 0.00 0.00 91 1014.9
20260903131305 26 96 3.2 3.2 0.00 0.00 0.00 91 1014.1
20260903124301 26 280 0.0 0.0 0.00 0.00 0.00 91 1013.9
20260903121259 26 77 1.6 1.6 0.00 0.00 0.00 90 1013.9
20260903114255 26 8 1.6 1.6 0.00 0.00 0.00 90 1013.4
20260903111254 25 209 1.6 3.2 0.00 0.00 0.00 90 1013.6
20260903104253 25 164 1.6 1.6 0.00 0.00 0.00 90 1013.4
20260903101252 25 43 1.6 3.2 0.00 0.00 0.00 90 1013.4
20260903094253 26 334 0.0 0.0 0.00 0.00 0.00 84 1013.6
20260903091249 26 282 0.0 0.0 0.00 0.00 0.00 83 1013.2
20260903084248 26 152 3.2 3.2 0.00 0.00 0.00 85 1013.3
20260903081246 26 174 1.6 1.6 0.00 0.00 0.00 86 1013.1
20260903074246 26 210 0.0 1.6 0.00 0.00 0.00 86 1013.0
20260903071244 26 163 0.0 1.6 0.00 0.00 0.00 86 1013.3
20260903064240 26 23 3.2 3.2 0.00 0.00 0.00 85 1013.3
20260903061239 26 69 1.6 3.2 0.00 0.00 0.00 84 1013.2
20260903054233 26 339 1.6 3.2 0.00 0.00 0.00 83 1013.8
20260903051230 27 342 4.8 4.8 0.00 0.00 0.00 80 1013.7
20260903044230 27 66 1.6 3.2 0.00 0.00 0.00 77 1013.8
20260903041224 28 50 4.8 8.0 0.00 0.00 0.00 74 1013.8
20260903034224 28 25 3.2 4.8 0.00 0.00 0.00 72 1013.7
20260903031222 29 23 3.2 4.8 0.00 0.00 0.00 70 1013.7
20260903024222 30 56 3.2 8.0 0.00 0.00 0.00 67 1013.6
20260903021219 31 6 1.6 3.2 0.00 0.00 0.00 64 1013.2
20260903014217 32 49 0.0 0.0 0.00 0.00 0.00 60 1012.7
20260903011215 32 355 1.6 3.2 0.00 0.00 0.00 57 1012.1
20260903004214 33 150 3.2 3.2 0.00 0.00 0.00 56 1012.2
20260903001212 33 30 3.2 4.8 0.00 0.00 0.00 57 1012.0
20260902234211 33 358 1.6 1.6 0.00 0.00 0.00 59 1011.9
20260902231211 32 237 1.6 1.6 0.00 0.00 0.00 63 1011.8
20260902224206 36 65 4.8 11.3 0.00 0.00 0.00 51 1011.6
20260902221206 37 93 4.8 8.0 0.00 0.00 0.00 45 1011.3
20260902214204 36 128 4.8 9.7 0.00 0.00 0.00 46 1011.7
20260902211159 37 69 4.8 8.0 0.00 0.00 0.00 45 1011.9